| time (UTC) | temp F | wind direction | speed MPH | gust MPH | rain 1hr in | rain 24hr in | rain mn in | humidity % | barometer mb |
| 20260503184507 | 59 | 187 | 6.0 | 12.0 | 0.00 | 0.00 | 0.00 | 79 | 1014.8 |
| 20260503183014 | 59 | 225 | 6.0 | 10.0 | 0.00 | 0.00 | 0.00 | 81 | 1014.7 |
| 20260503181510 | 60 | 216 | 3.0 | 8.0 | 0.00 | 0.00 | 0.00 | 79 | 1014.6 |
| 20260503180012 | 59 | 217 | 3.0 | 7.0 | 0.00 | 0.00 | 0.00 | 81 | 1014.6 |
| 20260503174509 | 57 | 277 | 5.0 | 10.0 | 0.00 | 0.00 | 0.00 | 82 | 1014.7 |
| 20260503173004 | 57 | 219 | 7.0 | 12.0 | 0.00 | 0.00 | 0.00 | 82 | 1014.7 |
| 20260503171508 | 58 | 232 | 5.0 | 10.0 | 0.00 | 0.00 | 0.00 | 80 | 1014.5 |
| 20260503081507 | 55 | 246 | 0.0 | 2.0 | 0.00 | 0.00 | 0.00 | 84 | 1012.8 |
| 20260503071525 | 56 | 84 | 0.0 | 3.0 | 0.00 | 0.00 | 0.00 | 82 | 1012.8 |
| 20260503054536 | 56 | 23 | 1.0 | 4.0 | 0.00 | 0.00 | 0.00 | 82 | 1012.9 |
| 20260503053012 | 56 | 86 | 2.0 | 5.0 | 0.00 | 0.00 | 0.00 | 82 | 1013.1 |
| 20260503051517 | 56 | 9 | 2.0 | 4.0 | 0.00 | 0.00 | 0.00 | 83 | 1013.1 |
| 20260503050024 | 56 | 63 | 1.0 | 6.0 | 0.00 | 0.00 | 0.00 | 83 | 1013.2 |
| 20260503044528 | 57 | 69 | 2.0 | 5.0 | 0.00 | 0.00 | 0.00 | 83 | 1013.2 |
| 20260503043027 | 57 | 45 | 2.0 | 7.0 | 0.00 | 0.00 | 0.00 | 83 | 1012.8 |
| 20260503041518 | 57 | 56 | 1.0 | 6.0 | 0.00 | 0.00 | 0.00 | 83 | 1012.6 |
| 20260503040005 | 56 | 9 | 3.0 | 7.0 | 0.00 | 0.00 | 0.00 | 84 | 1012.4 |
| 20260503034506 | 57 | 36 | 4.0 | 10.0 | 0.00 | 0.00 | 0.00 | 83 | 1012.0 |
| 20260503033016 | 57 | 60 | 3.0 | 7.0 | 0.00 | 0.00 | 0.00 | 83 | 1011.9 |
| 20260503031513 | 57 | 55 | 3.0 | 8.0 | 0.00 | 0.00 | 0.00 | 83 | 1011.7 |
| 20260503030019 | 58 | 41 | 3.0 | 8.0 | 0.00 | 0.00 | 0.00 | 83 | 1011.8 |
| 20260503024522 | 58 | 63 | 3.0 | 9.0 | 0.00 | 0.00 | 0.00 | 81 | 1011.6 |
| 20260503023004 | 59 | 67 | 3.0 | 7.0 | 0.00 | 0.00 | 0.00 | 79 | 1011.4 |
| 20260503021512 | 59 | 50 | 3.0 | 6.0 | 0.00 | 0.00 | 0.00 | 79 | 1011.5 |
| 20260503020018 | 59 | 66 | 0.0 | 3.0 | 0.00 | 0.00 | 0.00 | 79 | 1011.5 |
| 20260503014533 | 60 | 194 | 3.0 | 4.0 | 0.00 | 0.00 | 0.00 | 76 | 1011.6 |
| 20260503013003 | 60 | 239 | 3.0 | 8.0 | 0.00 | 0.00 | 0.00 | 77 | 1011.6 |
| 20260503011511 | 60 | 238 | 3.0 | 8.0 | 0.00 | 0.00 | 0.00 | 78 | 1011.7 |
| 20260503010016 | 61 | 203 | 4.0 | 8.0 | 0.00 | 0.00 | 0.00 | 77 | 1011.7 |
| 20260503004526 | 61 | 236 | 3.0 | 8.0 | 0.00 | 0.00 | 0.00 | 77 | 1011.8 |
| 20260503003024 | 61 | 220 | 6.0 | 12.0 | 0.00 | 0.00 | 0.00 | 77 | 1011.9 |
| 20260503001504 | 61 | 233 | 7.0 | 18.0 | 0.00 | 0.00 | 0.00 | 78 | 1012.0 |
| 20260503000029 | 60 | 249 | 8.0 | 16.0 | 0.00 | 0.00 | 0.00 | 78 | 1012.1 |
| 20260502234515 | 61 | 199 | 8.0 | 14.0 | 0.00 | 0.00 | 0.00 | 76 | 1012.3 |
| 20260502233021 | 61 | 266 | 5.0 | 13.0 | 0.00 | 0.00 | 0.00 | 79 | 1012.4 |
| 20260502231527 | 60 | 233 | 10.0 | 16.0 | 0.00 | 0.00 | 0.00 | 79 | 1012.3 |
| 20260502230028 | 60 | 241 | 9.0 | 17.0 | 0.00 | 0.00 | 0.00 | 80 | 1012.9 |
| 20260502224511 | 59 | 252 | 10.0 | 17.0 | 0.00 | 0.00 | 0.00 | 81 | 1013.1 |
| 20260502223020 | 59 | 265 | 9.0 | 16.0 | 0.00 | 0.00 | 0.00 | 82 | 1013.4 |
| 20260502221522 | 59 | 240 | 8.0 | 14.0 | 0.00 | 0.00 | 0.00 | 82 | 1013.8 |
| 20260502220026 | 59 | 240 | 8.0 | 16.0 | 0.00 | 0.00 | 0.00 | 82 | 1014.1 |
| 20260502214513 | 58 | 192 | 9.0 | 18.0 | 0.00 | 0.00 | 0.00 | 84 | 1014.3 |
| 20260502213014 | 58 | 225 | 9.0 | 15.0 | 0.00 | 0.00 | 0.00 | 84 | 1014.3 |
| 20260502211538 | 58 | 197 | 7.0 | 15.0 | 0.00 | 0.00 | 0.00 | 85 | 1014.3 |
| 20260502210030 | 58 | 202 | 6.0 | 12.0 | 0.00 | 0.00 | 0.00 | 85 | 1014.3 |
| 20260502204528 | 59 | 255 | 7.0 | 14.0 | 0.00 | 0.00 | 0.00 | 83 | 1014.7 |
| 20260502203014 | 59 | 273 | 4.0 | 10.0 | 0.00 | 0.00 | 0.00 | 85 | 1015.0 |
| 20260502201518 | 58 | 201 | 6.0 | 12.0 | 0.00 | 0.00 | 0.00 | 85 | 1015.3 |
| 20260502200025 | 58 | 268 | 7.0 | 11.0 | 0.00 | 0.00 | 0.00 | 85 | 1015.5 |
| 20260502194528 | 58 | 259 | 4.0 | 9.0 | 0.00 | 0.00 | 0.00 | 87 | 1015.6 |
| 20260502193028 | 57 | 265 | 4.0 | 8.0 | 0.00 | 0.00 | 0.00 | 88 | 1015.7 |
| 20260502191517 | 57 | 273 | 4.0 | 9.0 | 0.00 | 0.00 | 0.00 | 89 | 1015.7 |
| 20260502190028 | 56 | 224 | 4.0 | 8.0 | 0.00 | 0.00 | 0.00 | 89 | 1015.7 |